Location: ????????
(48.4751°N, 37.6926°E)
Time: 13:07:57
(UTC+00:00)

H-2A R/B - Pass Details

Date: 20 January 2021
Orbit: 529 x 651 km, 98.3° (Epoch: 26 February)

Event Time Altitude Azimuth Distance (km) Brightness Sun altitude
Rises 14:54:08 0° 172° (S) 2,724 6.0 -7.5°
Reaches altitude 10° 14:56:14 10° 175° (S) 1,851 5.2 -7.8°
Maximum altitude 15:00:12 65° 258° (WSW) 638 2.9 -8.5°
Drops below altitude 10° 15:04:23 10° 341° (NNW) 1,940 5.1 -9.1°
Sets 15:06:38 0° 344° (NNW) 2,868 5.9 -9.5°
